Station History


Daily Summary for February 6, 2012 Units:  English    Metric   Both
« Previous Day
Next Day »
Daily Weekly Monthly Yearly Custom
  High: Low: Average:
Temperature: 66.1 °F 35.4 °F 50.6 °F
Dew Point: 43.1 °F 31.0 °F 36.6 °F
Humidity: 88% 33% 62%
Wind Speed: 3.5mph 0.0mph 1.4mph
Wind Gust: 3.5mph - -
Wind- - West
Pressure: 30.02 in 29.77 in -
Precipitation: 0.00 in    
Historical Graphs
 
 
Tabular Data for February 6, 2012
Time Temperature Dew Point Pressure Wind Wind Speed Wind Gust Humidity Rainfall Rate (Hourly)
00:01 39.4 °F 33.7 °F 30.01 in Calm     80% 0.00 in
00:06 39.1 °F 33.5 °F 30.01 in Calm     80% 0.00 in
00:11 38.8 °F 33.2 °F 30.01 in Calm     80% 0.00 in
00:16 38.7 °F 33.4 °F 30.01 in Calm     81% 0.00 in
00:21 38.6 °F 33.3 °F 30.01 in Calm     81% 0.00 in
00:26 38.7 °F 33.7 °F 30.01 in WSW 1.1 mph 1.1 mph 82% 0.00 in
00:31 39.4 °F 33.7 °F 30.01 in Calm     80% 0.00 in
00:36 39.8 °F 34.1 °F 30.01 in Calm     80% 0.00 in
00:41 39.8 °F 33.8 °F 30.01 in Calm     79% 0.00 in
00:46 39.8 °F 33.8 °F 30.01 in Calm     79% 0.00 in
00:51 39.8 °F 33.5 °F 30.01 in Calm     78% 0.00 in
00:56 39.6 °F 33.3 °F 30.01 in Calm     78% 0.00 in
01:01 39.4 °F 33.1 °F 30.01 in Calm     78% 0.00 in
01:06 39.3 °F 33.3 °F 30.01 in Calm     79% 0.00 in
01:11 39.2 °F 33.2 °F 30.01 in Calm     79% 0.00 in
01:16 39.0 °F 33.0 °F 30.02 in Calm     79% 0.00 in
01:21 38.8 °F 32.8 °F 30.02 in Calm     79% 0.00 in
01:26 38.6 °F 33.0 °F 30.02 in Calm     80% 0.00 in
01:31 38.7 °F 33.1 °F 30.02 in Calm     80% 0.00 in
01:36 38.6 °F 33.0 °F 30.02 in Calm     80% 0.00 in
01:41 38.4 °F 32.8 °F 30.02 in Calm     80% 0.00 in
01:46 38.5 °F 32.9 °F 30.02 in Calm     80% 0.00 in
01:51 38.5 °F 32.9 °F 30.02 in Calm     80% 0.00 in
01:56 38.7 °F 33.1 °F 30.02 in Calm     80% 0.00 in
02:01 38.6 °F 32.6 °F 30.02 in Calm     79% 0.00 in
02:06 38.3 °F 32.7 °F 30.02 in Calm     80% 0.00 in
02:11 38.6 °F 33.0 °F 30.01 in Calm     80% 0.00 in
02:16 38.7 °F 32.7 °F 30.01 in Calm     79% 0.00 in
02:21 38.7 °F 32.7 °F 30.01 in Calm     79% 0.00 in
02:26 38.8 °F 32.8 °F 30.01 in Calm     79% 0.00 in
02:31 38.9 °F 32.6 °F 30.00 in Calm     78% 0.00 in
02:36 38.9 °F 32.3 °F 30.00 in Calm     77% 0.00 in
02:41 39.2 °F 32.6 °F 30.00 in Calm     77% 0.00 in
02:46 39.2 °F 32.3 °F 30.00 in Calm     76% 0.00 in
02:51 38.9 °F 32.3 °F 29.99 in Calm     77% 0.00 in
02:56 38.6 °F 32.3 °F 29.99 in Calm     78% 0.00 in
03:01 38.4 °F 32.1 °F 29.99 in Calm     78% 0.00 in
03:06 38.3 °F 32.0 °F 29.99 in Calm     78% 0.00 in
03:11 38.1 °F 32.2 °F 29.99 in Calm     79% 0.00 in
03:16 37.9 °F 32.0 °F 29.99 in Calm     79% 0.00 in
03:21 37.7 °F 31.8 °F 29.98 in Calm     79% 0.00 in
03:26 37.5 °F 32.2 °F 29.98 in Calm     81% 0.00 in
03:31 37.3 °F 31.7 °F 29.98 in Calm     80% 0.00 in
03:36 37.2 °F 32.2 °F 29.98 in Calm     82% 0.00 in
03:42 37.1 °F 31.8 °F 29.98 in Calm     81% 0.00 in
03:47 36.9 °F 31.9 °F 29.98 in Calm     82% 0.00 in
03:52 36.8 °F 31.8 °F 29.98 in Calm     82% 0.00 in
03:57 37.2 °F 32.5 °F 29.97 in Calm     83% 0.00 in
04:02 38.0 °F 32.4 °F 29.97 in Calm     80% 0.00 in
04:07 38.2 °F 32.3 °F 29.97 in Calm     79% 0.00 in
04:12 38.0 °F 31.7 °F 29.97 in Calm     78% 0.00 in
04:17 37.5 °F 31.6 °F 29.97 in Calm     79% 0.00 in
04:22 37.2 °F 31.6 °F 29.97 in Calm     80% 0.00 in
04:27 37.0 °F 32.0 °F 29.97 in Calm     82% 0.00 in
04:32 36.8 °F 31.5 °F 29.97 in Calm     81% 0.00 in
04:37 36.5 °F 31.5 °F 29.97 in Calm     82% 0.00 in
04:42 36.3 °F 31.3 °F 29.97 in Calm     82% 0.00 in
04:47 36.0 °F 31.0 °F 29.97 in Calm     82% 0.00 in
04:52 35.8 °F 31.4 °F 29.97 in Calm     84% 0.00 in
04:57 35.7 °F 31.3 °F 29.97 in Calm     84% 0.00 in
05:02 35.5 °F 31.1 °F 29.97 in Calm     84% 0.00 in
05:07 35.5 °F 31.4 °F 29.97 in Calm     85% 0.00 in
05:12 35.4 °F 31.3 °F 29.97 in Calm     85% 0.00 in
05:17 35.5 °F 31.7 °F 29.97 in Calm     86% 0.00 in
05:22 35.8 °F 31.7 °F 29.97 in Calm     85% 0.00 in
05:27 35.7 °F 31.6 °F 29.97 in Calm     85% 0.00 in
05:32 35.7 °F 31.6 °F 29.97 in Calm     85% 0.00 in
05:37 35.7 °F 31.9 °F 29.97 in Calm     86% 0.00 in
05:42 35.8 °F 31.7 °F 29.97 in Calm     85% 0.00 in
05:47 35.9 °F 32.1 °F 29.97 in Calm     86% 0.00 in
05:52 36.1 °F 32.3 °F 29.97 in Calm     86% 0.00 in
05:57 36.2 °F 32.4 °F 29.97 in Calm     86% 0.00 in
06:02 36.3 °F 32.5 °F 29.97 in Calm     86% 0.00 in
06:07 36.3 °F 32.2 °F 29.97 in Calm     85% 0.00 in
06:12 36.2 °F 32.1 °F 29.97 in Calm     85% 0.00 in
06:17 36.1 °F 32.0 °F 29.98 in Calm     85% 0.00 in
06:22 36.0 °F 31.9 °F 29.98 in Calm     85% 0.00 in
06:27 36.1 °F 32.3 °F 29.98 in Calm     86% 0.00 in
06:32 36.1 °F 32.3 °F 29.98 in Calm     86% 0.00 in
06:37 36.3 °F 32.5 °F 29.99 in Calm     86% 0.00 in
06:42 36.5 °F 32.4 °F 29.99 in Calm     85% 0.00 in
06:47 36.6 °F 32.5 °F 29.99 in Calm     85% 0.00 in
06:52 36.6 °F 32.5 °F 29.99 in Calm     85% 0.00 in
06:57 36.5 °F 32.1 °F 29.99 in Calm     84% 0.00 in
07:02 36.2 °F 31.5 °F 29.99 in Calm     83% 0.00 in
07:07 35.9 °F 31.5 °F 29.99 in Calm     84% 0.00 in
07:12 35.7 °F 31.6 °F 30.00 in Calm     85% 0.00 in
07:17 35.6 °F 31.5 °F 30.00 in Calm     85% 0.00 in
07:22 35.6 °F 31.8 °F 30.00 in Calm     86% 0.00 in
07:27 35.7 °F 31.9 °F 30.00 in Calm     86% 0.00 in
07:32 35.8 °F 32.3 °F 30.00 in Calm     87% 0.00 in
07:37 36.3 °F 33.1 °F 30.00 in Calm     88% 0.00 in
07:42 36.8 °F 33.6 °F 30.00 in Calm     88% 0.00 in
07:47 37.4 °F 33.9 °F 30.00 in Calm     87% 0.00 in
07:52 37.9 °F 34.4 °F 30.00 in Calm     87% 0.00 in
07:57 38.4 °F 34.9 °F 30.00 in Calm     87% 0.00 in
08:02 39.1 °F 35.3 °F 29.99 in Calm     86% 0.00 in
08:07 39.9 °F 35.8 °F 29.99 in Calm     85% 0.00 in
08:12 41.0 °F 35.9 °F 29.99 in Calm     82% 0.00 in
08:17 41.8 °F 36.1 °F 29.99 in Calm     80% 0.00 in
08:22 42.7 °F 36.3 °F 29.99 in Calm     78% 0.00 in
08:27 43.4 °F 37.3 °F 30.00 in Calm     79% 0.00 in
08:32 44.1 °F 38.0 °F 30.00 in Calm     79% 0.00 in
08:37 45.1 °F 38.0 °F 30.00 in Calm     76% 0.00 in
08:42 45.9 °F 38.1 °F 30.00 in Calm     74% 0.00 in
08:47 46.7 °F 38.5 °F 30.00 in Calm     73% 0.00 in
08:52 47.4 °F 38.8 °F 30.00 in Calm     72% 0.00 in
08:57 48.1 °F 38.4 °F 30.00 in Calm     69% 0.00 in
09:02 48.8 °F 38.3 °F 29.99 in Calm     67% 0.00 in
09:07 49.5 °F 38.6 °F 29.99 in Calm     66% 0.00 in
09:12 50.2 °F 39.3 °F 30.00 in Calm     66% 0.00 in
09:17 50.9 °F 40.3 °F 30.00 in Calm     67% 0.00 in
09:22 51.6 °F 39.8 °F 30.00 in Calm     64% 0.00 in
09:27 52.1 °F 40.3 °F 30.00 in Calm     64% 0.00 in
09:32 52.7 °F 40.5 °F 30.00 in Calm     63% 0.00 in
09:37 53.2 °F 40.1 °F 30.00 in Calm     61% 0.00 in
09:42 53.6 °F 40.9 °F 30.00 in Calm     62% 0.00 in
09:47 54.0 °F 40.8 °F 30.00 in Calm     61% 0.00 in
09:52 54.4 °F 40.8 °F 30.00 in Calm     60% 0.00 in
09:57 54.8 °F 40.3 °F 30.00 in Calm     58% 0.00 in
10:02 55.2 °F 40.2 °F 30.00 in Calm     57% 0.00 in
10:07 55.7 °F 39.8 °F 29.99 in Calm     55% 0.00 in
10:12 56.1 °F 39.2 °F 29.99 in Calm     53% 0.00 in
10:17 56.7 °F 38.3 °F 29.99 in Calm     50% 0.00 in
10:22 57.2 °F 39.2 °F 29.99 in Calm     51% 0.00 in
10:27 57.7 °F 39.2 °F 29.99 in Calm     50% 0.00 in
10:32 58.2 °F 39.1 °F 29.99 in Calm     49% 0.00 in
10:37 58.6 °F 38.4 °F 29.99 in North 1.1 mph 1.1 mph 47% 0.00 in
10:42 58.8 °F 38.6 °F 29.99 in NW 1.1 mph 1.1 mph 47% 0.00 in
10:47 59.2 °F 39.0 °F 29.99 in Calm   0.3 mph 47% 0.00 in
10:52 59.5 °F 39.2 °F 29.99 in North 1.1 mph 1.1 mph 47% 0.00 in
10:57 59.7 °F 38.3 °F 29.99 in NNW 1.1 mph   45% 0.00 in
11:02 59.9 °F 37.9 °F 29.99 in Calm     44% 0.00 in
11:07 60.1 °F 37.5 °F 29.99 in West 1.1 mph   43% 0.00 in
11:12 60.4 °F 37.2 °F 29.99 in West 1.1 mph 1.1 mph 42% 0.00 in
11:17 60.8 °F 36.9 °F 29.98 in Calm   0.1 mph 41% 0.00 in
11:23 60.9 °F 38.2 °F 29.98 in SW 2.3 mph 2.3 mph 43% 0.00 in
11:28 60.8 °F 35.7 °F 29.98 in WNW 1.0 mph 1.0 mph 39% 0.00 in
11:33 60.9 °F 35.1 °F 29.98 in West 1.1 mph 1.1 mph 38% 0.00 in
11:38 61.1 °F 34.6 °F 29.97 in NNW 2.3 mph 2.3 mph 37% 0.00 in
11:43 61.1 °F 34.6 °F 29.97 in North 2.3 mph 2.3 mph 37% 0.00 in
11:48 61.3 °F 34.8 °F 29.97 in Calm     37% 0.00 in
11:53 61.4 °F 34.9 °F 29.96 in NW 1.1 mph   37% 0.00 in
11:58 61.5 °F 35.6 °F 29.96 in Calm     38% 0.00 in
12:03 61.6 °F 35.1 °F 29.96 in NW 1.1 mph 1.1 mph 37% 0.00 in
12:08 61.6 °F 35.1 °F 29.96 in Calm     37% 0.00 in
12:13 61.8 °F 36.6 °F 29.95 in North 1.1 mph 1.1 mph 39% 0.00 in
12:18 62.0 °F 36.7 °F 29.95 in NNW 1.1 mph 1.1 mph 39% 0.00 in
12:23 62.1 °F 36.2 °F 29.95 in NNW 1.1 mph 1.1 mph 38% 0.00 in
12:28 62.4 °F 37.7 °F 29.95 in Calm     40% 0.00 in
12:33 62.8 °F 38.1 °F 29.94 in Calm     40% 0.00 in
12:38 63.0 °F 38.3 °F 29.94 in Calm     40% 0.00 in
12:44 63.1 °F 35.0 °F 29.94 in NNW 1.1 mph 1.1 mph 35% 0.00 in
12:49 63.1 °F 35.7 °F 29.94 in NW 1.1 mph 1.1 mph 36% 0.00 in
12:54 63.1 °F 37.1 °F 29.93 in NNW 1.1 mph   38% 0.00 in
12:59 63.3 °F 36.6 °F 29.92 in Calm     37% 0.00 in
13:04 63.6 °F 37.5 °F 29.92 in North 2.3 mph 2.3 mph 38% 0.00 in
13:09 63.9 °F 37.1 °F 29.92 in Calm   0.1 mph 37% 0.00 in
13:14 64.0 °F 37.2 °F 29.92 in Calm     37% 0.00 in
13:19 64.2 °F 38.0 °F 29.92 in Calm     38% 0.00 in
13:24 64.1 °F 37.3 °F 29.91 in NNW 1.1 mph 1.1 mph 37% 0.00 in
13:29 64.1 °F 37.3 °F 29.91 in Calm     37% 0.00 in
13:34 64.2 °F 36.7 °F 29.90 in Calm     36% 0.00 in
13:39 64.3 °F 38.1 °F 29.90 in West 1.1 mph 1.1 mph 38% 0.00 in
13:44 64.2 °F 38.7 °F 29.90 in NW 2.3 mph 2.3 mph 39% 0.00 in
13:49 64.2 °F 38.7 °F 29.90 in North 1.1 mph   39% 0.00 in
13:54 64.5 °F 39.0 °F 29.90 in NNW 1.1 mph 1.1 mph 39% 0.00 in
13:59 64.6 °F 37.7 °F 29.90 in NNW 1.1 mph 1.1 mph 37% 0.00 in
14:04 64.8 °F 37.2 °F 29.89 in NW 1.1 mph 1.1 mph 36% 0.00 in
14:09 65.1 °F 37.5 °F 29.89 in NNW 1.1 mph 1.1 mph 36% 0.00 in
14:14 65.2 °F 38.9 °F 29.89 in Calm     38% 0.00 in
14:19 65.5 °F 38.5 °F 29.89 in NNW 1.1 mph 1.1 mph 37% 0.00 in
14:24 65.5 °F 37.8 °F 29.89 in NNW 1.0 mph 1.0 mph 36% 0.00 in
14:29 65.7 °F 38.0 °F 29.89 in Calm     36% 0.00 in
14:34 65.9 °F 37.5 °F 29.89 in NNW 1.1 mph 1.1 mph 35% 0.00 in
14:39 66.1 °F 36.1 °F 29.88 in Calm   0.1 mph 33% 0.00 in
14:44 66.0 °F 36.1 °F 29.88 in NNE 1.1 mph   33% 0.00 in
14:49 65.9 °F 36.0 °F 29.88 in Calm     33% 0.00 in
14:54 65.9 °F 36.7 °F 29.88 in NNE 1.1 mph   34% 0.00 in
14:59 65.8 °F 35.9 °F 29.88 in NNW 1.1 mph 1.1 mph 33% 0.00 in
15:04 65.6 °F 36.5 °F 29.88 in Calm     34% 0.00 in
15:09 65.4 °F 35.5 °F 29.87 in NNW 1.1 mph 1.1 mph 33% 0.00 in
15:14 65.2 °F 35.4 °F 29.88 in Calm     33% 0.00 in
15:19 65.1 °F 36.0 °F 29.87 in Calm   0.4 mph 34% 0.00 in
15:24 65.0 °F 36.7 °F 29.87 in NNW 1.1 mph   35% 0.00 in
15:29 64.7 °F 37.1 °F 29.87 in Calm     36% 0.00 in
15:34 64.6 °F 37.7 °F 29.87 in Calm     37% 0.00 in
15:40 64.5 °F 38.3 °F 29.87 in Calm     38% 0.00 in
15:45 64.4 °F 38.2 °F 29.86 in Calm     38% 0.00 in
15:50 64.3 °F 38.8 °F 29.86 in Calm     39% 0.00 in
15:55 64.2 °F 38.7 °F 29.86 in Calm     39% 0.00 in
16:00 64.1 °F 39.3 °F 29.86 in Calm     40% 0.00 in
16:05 64.1 °F 40.5 °F 29.86 in Calm     42% 0.00 in
16:10 63.9 °F 40.3 °F 29.86 in Calm     42% 0.00 in
16:15 63.7 °F 40.2 °F 29.85 in Calm     42% 0.00 in
16:20 63.6 °F 41.3 °F 29.85 in Calm     44% 0.00 in
16:25 63.4 °F 41.1 °F 29.85 in Calm     44% 0.00 in
16:30 63.2 °F 40.9 °F 29.85 in Calm     44% 0.00 in
16:35 63.1 °F 40.8 °F 29.85 in Calm     44% 0.00 in
16:40 62.9 °F 40.6 °F 29.84 in NNW 1.1 mph 1.1 mph 44% 0.00 in
16:45 62.6 °F 40.4 °F 29.84 in Calm     44% 0.00 in
16:50 62.5 °F 40.3 °F 29.84 in Calm     44% 0.00 in
16:55 62.2 °F 40.6 °F 29.84 in Calm     45% 0.00 in
17:00 62.0 °F 40.4 °F 29.84 in Calm     45% 0.00 in
17:05 61.7 °F 41.3 °F 29.84 in Calm     47% 0.00 in
17:10 61.4 °F 40.4 °F 29.84 in Calm     46% 0.00 in
17:15 61.1 °F 41.2 °F 29.84 in Calm     48% 0.00 in
17:20 60.7 °F 40.9 °F 29.83 in Calm     48% 0.00 in
17:25 60.4 °F 41.1 °F 29.83 in NNE 1.0 mph 1.0 mph 49% 0.00 in
17:30 60.4 °F 41.1 °F 29.83 in NE 1.1 mph   49% 0.00 in
17:35 60.1 °F 41.4 °F 29.83 in Calm     50% 0.00 in
17:40 59.7 °F 41.5 °F 29.83 in Calm     51% 0.00 in
17:45 59.3 °F 42.2 °F 29.83 in Calm     53% 0.00 in
17:50 59.1 °F 42.0 °F 29.83 in Calm     53% 0.00 in
17:55 58.8 °F 41.7 °F 29.83 in Calm     53% 0.00 in
18:00 58.4 °F 42.3 °F 29.83 in Calm     55% 0.00 in
18:05 58.1 °F 42.5 °F 29.83 in Calm     56% 0.00 in
18:10 57.8 °F 42.2 °F 29.83 in Calm     56% 0.00 in
18:15 57.6 °F 42.5 °F 29.83 in Calm     57% 0.00 in
18:20 57.3 °F 43.1 °F 29.83 in Calm     59% 0.00 in
18:25 56.9 °F 42.7 °F 29.83 in Calm     59% 0.00 in
18:30 56.5 °F 42.8 °F 29.83 in Calm     60% 0.00 in
18:35 56.4 °F 42.7 °F 29.83 in Calm     60% 0.00 in
18:40 56.1 °F 42.8 °F 29.83 in Calm     61% 0.00 in
18:45 55.7 °F 42.5 °F 29.83 in Calm     61% 0.00 in
18:50 55.2 °F 42.4 °F 29.83 in Calm     62% 0.00 in
18:55 54.7 °F 42.3 °F 29.83 in Calm     63% 0.00 in
19:00 54.3 °F 42.4 °F 29.83 in Calm     64% 0.00 in
19:05 53.9 °F 42.4 °F 29.83 in Calm     65% 0.00 in
19:10 53.5 °F 42.0 °F 29.83 in Calm     65% 0.00 in
19:15 53.1 °F 42.0 °F 29.83 in Calm     66% 0.00 in
19:20 52.8 °F 42.1 °F 29.83 in Calm     67% 0.00 in
19:25 52.4 °F 41.8 °F 29.83 in Calm     67% 0.00 in
19:30 52.1 °F 41.5 °F 29.83 in Calm     67% 0.00 in
19:35 51.8 °F 41.2 °F 29.83 in Calm     67% 0.00 in
19:40 51.8 °F 40.4 °F 29.82 in Calm     65% 0.00 in
19:45 52.3 °F 39.2 °F 29.82 in Calm     61% 0.00 in
19:51 52.8 °F 38.9 °F 29.82 in Calm     59% 0.00 in
19:56 53.2 °F 38.4 °F 29.82 in Calm     57% 0.00 in
20:01 53.3 °F 38.4 °F 29.82 in Calm     57% 0.00 in
20:06 53.2 °F 38.4 °F 29.82 in Calm     57% 0.00 in
20:11 53.2 °F 38.4 °F 29.82 in Calm     57% 0.00 in
20:16 53.0 °F 38.6 °F 29.82 in Calm     58% 0.00 in
20:21 52.8 °F 38.9 °F 29.81 in Calm     59% 0.00 in
20:26 52.6 °F 37.8 °F 29.81 in Calm     57% 0.00 in
20:31 52.5 °F 37.7 °F 29.81 in Calm     57% 0.00 in
20:36 52.5 °F 38.1 °F 29.82 in Calm     58% 0.00 in
20:41 53.0 °F 38.2 °F 29.82 in Calm     57% 0.00 in
20:46 53.0 °F 38.2 °F 29.82 in Calm     57% 0.00 in
20:51 52.8 °F 38.9 °F 29.82 in Calm     59% 0.00 in
20:56 52.6 °F 39.1 °F 29.81 in Calm     60% 0.00 in
21:00 52.4 °F 38.0 °F 29.81 in Calm     58% 0.00 in
21:01 52.5 °F 38.1 °F 29.81 in Calm     58% 0.00 in
21:06 52.5 °F 38.1 °F 29.81 in NE 1.1 mph 1.1 mph 58% 0.00 in
21:11 52.4 °F 36.7 °F 29.81 in Calm     55% 0.00 in
21:16 52.4 °F 36.7 °F 29.81 in Calm     55% 0.00 in
21:21 52.3 °F 36.6 °F 29.81 in Calm     55% 0.00 in
21:26 52.2 °F 36.5 °F 29.81 in Calm     55% 0.00 in
21:38 52.3 °F 36.6 °F 29.81 in Calm     55% 0.00 in
21:44 52.4 °F 36.2 °F 29.81 in Calm     54% 0.00 in
21:49 52.5 °F 36.3 °F 29.81 in Calm     54% 0.00 in
21:54 52.7 °F 36.0 °F 29.81 in Calm     53% 0.00 in
21:59 52.8 °F 36.6 °F 29.80 in Calm     54% 0.00 in
22:04 53.2 °F 36.5 °F 29.80 in NE 1.1 mph 1.1 mph 53% 0.00 in
22:09 53.6 °F 36.9 °F 29.80 in Calm     53% 0.00 in
22:14 53.7 °F 37.4 °F 29.80 in Calm     54% 0.00 in
22:19 53.8 °F 37.5 °F 29.79 in Calm     54% 0.00 in
22:24 53.9 °F 37.1 °F 29.79 in Calm     53% 0.00 in
22:29 53.8 °F 37.5 °F 29.78 in Calm     54% 0.00 in
22:34 53.6 °F 37.3 °F 29.79 in Calm     54% 0.00 in
22:39 53.2 °F 37.4 °F 29.78 in Calm     55% 0.00 in
22:44 53.0 °F 37.7 °F 29.78 in Calm     56% 0.00 in
22:49 52.9 °F 38.1 °F 29.78 in Calm     57% 0.00 in
22:54 52.7 °F 37.9 °F 29.77 in Calm     57% 0.00 in
22:59 52.6 °F 37.8 °F 29.78 in Calm     57% 0.00 in
23:04 52.7 °F 38.3 °F 29.78 in WNW 3.5 mph 3.5 mph 58% 0.00 in
23:09 52.7 °F 37.9 °F 29.80 in WSW 3.5 mph 3.5 mph 57% 0.00 in
23:14 52.9 °F 38.1 °F 29.80 in SE 2.3 mph 2.3 mph 57% 0.00 in
23:19 53.3 °F 38.4 °F 29.80 in ESE 1.1 mph 1.1 mph 57% 0.00 in
23:24 53.6 °F 38.7 °F 29.80 in West 2.3 mph 2.3 mph 57% 0.00 in
23:29 53.7 °F 38.8 °F 29.80 in Calm     57% 0.00 in
23:34 53.7 °F 38.8 °F 29.80 in Calm     57% 0.00 in
23:39 53.7 °F 38.8 °F 29.80 in Calm     57% 0.00 in
23:44 53.6 °F 39.2 °F 29.80 in SE 1.1 mph 1.1 mph 58% 0.00 in
23:49 53.6 °F 39.6 °F 29.80 in Calm     59% 0.00 in
23:54 53.4 °F 39.4 °F 29.80 in ESE 1.1 mph 1.1 mph 59% 0.00 in
23:59 53.2 °F 39.2 °F 29.80 in Calm     59% 0.00 in
Compliments of Weather Underground